KE8ZZR Weather Reports


time (UTC)temp
C
wind
direction
speed
KPH
gust
KPH
rain 1hr
cm
rain 24hr
cm
rain mn
cm
humidity
%
barometer
mb
20260505171559 18 274 9.7 17.7 0.00 0.00 0.00 65 1007.6
20260505170056 19 272 8.0 22.5 0.00 0.00 0.00 63 1007.6
20260505164557 19 284 3.2 14.5 0.00 0.00 0.00 64 1007.5
20260505163059 20 248 4.8 14.5 0.00 0.00 0.00 63 1007.5
20260505161559 20 285 4.8 17.7 0.00 0.00 0.00 62 1007.5
20260505153104 20 218 3.2 20.9 0.00 0.00 0.00 66 1007.0
20260505151558 20 8 6.4 20.9 0.00 0.00 0.00 66 1007.1
20260505130116 15 304 0.0 1.6 0.00 0.00 0.00 77 1007.0
20260505124617 15 284 3.2 9.7 0.00 0.00 0.00 76 1007.0
20260505123116 15 84 3.2 9.7 0.00 0.00 0.00 77 1006.4
20260505121559 15 304 0.0 6.4 0.00 0.00 0.00 78 1005.9
20260505120103 15 209 1.6 8.0 0.00 0.00 0.00 77 1005.8
20260505114555 15 248 1.6 6.4 0.00 0.00 0.00 76 1006.2
20260505113059 15 271 1.6 12.9 0.00 0.00 0.00 75 1006.4
20260505111556 15 273 1.6 9.7 0.00 0.00 0.00 76 1006.1
20260505101557 15 256 1.6 6.4 0.00 0.00 0.00 75 1005.4
20260505100058 15 291 1.6 11.3 0.00 0.00 0.00 74 1005.4
20260505094556 15 307 1.6 8.0 0.00 0.00 0.00 74 1005.2
20260505093058 15 332 1.6 6.4 0.00 0.00 0.00 73 1005.0
20260505091620 16 0 0.0 4.8 0.00 0.00 0.00 71 1004.9
20260505090124 16 227 1.6 16.1 0.00 0.00 0.00 69 1004.7
20260505084615 16 323 4.8 14.5 0.00 0.00 0.00 70 1004.5
20260505083111 16 310 3.2 11.3 0.00 0.00 0.00 71 1004.5
20260505081606 16 296 3.2 11.3 0.00 0.00 0.00 73 1004.6
20260505074556 15 0 1.6 4.8 0.00 0.00 0.00 76 1004.1
20260505073102 15 269 0.0 1.6 0.00 0.00 0.00 77 1004.0
20260505071615 15 236 0.0 3.2 0.00 0.00 0.00 77 1003.9
20260505070059 14 34 0.0 4.8 0.00 0.00 0.00 78 1004.0
20260505064603 14 0 0.0 1.6 0.00 0.00 0.00 77 1004.2
20260505063100 15 0 0.0 1.6 0.00 0.00 0.00 76 1004.2
20260505061557 15 0 0.0 4.8 0.00 0.00 0.00 76 1004.5
20260505054557 16 0 0.0 3.2 0.00 0.00 0.00 73 1004.8
20260505053059 16 295 0.0 6.4 0.00 0.00 0.00 73 1004.9
20260505051556 16 334 1.6 8.0 0.00 0.00 0.00 73 1004.9
20260505041602 16 191 1.6 6.4 0.00 0.00 0.00 74 1005.2
20260505040059 15 133 1.6 4.8 0.00 0.00 0.00 75 1005.1
20260505034554 15 278 0.0 6.4 0.00 0.00 0.00 74 1005.3
20260505033055 15 0 1.6 6.4 0.00 0.00 0.00 72 1005.5
20260505031554 16 0 0.0 6.4 0.00 0.00 0.00 72 1005.5
20260505030111 16 217 0.0 11.3 0.00 0.00 0.00 71 1005.4
20260505024559 16 0 1.6 4.8 0.00 0.00 0.00 71 1005.4
20260505023055 16 141 1.6 12.9 0.00 0.00 0.00 71 1005.3
20260505021554 16 11 0.0 4.8 0.00 0.00 0.00 71 1005.4
20260505020059 16 62 0.0 3.2 0.00 0.00 0.00 69 1005.5
20260505014609 16 98 0.0 3.2 0.00 0.00 0.00 68 1005.5
20260505013058 17 295 0.0 6.4 0.00 0.00 0.00 66 1005.5
20260505011558 17 281 1.6 9.7 0.00 0.00 0.00 64 1005.4
20260505004555 18 274 1.6 12.9 0.00 0.00 0.00 61 1005.1
20260505003117 18 236 4.8 17.7 0.00 0.00 0.00 60 1004.9
20260505001559 18 284 1.6 8.0 0.00 0.00 0.00 60 1004.6
20260505000107 20 302 0.0 6.4 0.00 0.00 0.00 59 1004.4
20260504234555 21 301 0.0 9.7 0.00 0.00 0.00 55 1004.3
20260504233057 22 326 1.6 4.8 0.00 0.00 0.00 54 1004.2
20260504231556 22 310 3.2 9.7 0.00 0.00 0.00 53 1004.2
20260504230059 22 269 3.2 16.1 0.00 0.00 0.00 55 1004.4
20260504224559 21 299 6.4 17.7 0.00 0.00 0.00 53 1004.6
20260504223117 22 271 3.2 11.3 0.00 0.00 0.00 53 1004.5
20260504221603 21 79 1.6 14.5 0.00 0.00 0.00 58 1004.6
20260504214558 22 281 3.2 11.3 0.00 0.00 0.00 53 1004.8
20260504213106 22 235 4.8 12.9 0.00 0.00 0.00 55 1004.8
20260504211649 21 108 4.8 19.3 0.00 0.00 0.00 53 1004.8
20260504210056 22 245 3.2 11.3 0.00 0.00 0.00 52 1005.0
20260504204603 22 281 4.8 12.9 0.00 0.00 0.00 53 1005.2
20260504203107 22 314 3.2 11.3 0.00 0.00 0.00 54 1005.2
20260504201612 22 210 6.4 17.7 0.00 0.00 0.00 52 1005.2
20260504200100 22 290 3.2 24.1 0.00 0.00 0.00 52 1005.4
20260504194606 22 250 3.2 14.5 0.00 0.00 0.00 54 1005.4
20260504193111 22 257 3.2 24.1 0.00 0.00 0.00 58 1005.8
20260504191612 22 302 4.8 11.3 0.00 0.00 0.00 51 1006.3
20260504190108 22 327 4.8 12.9 0.00 0.00 0.00 53 1006.3
20260504184610 22 319 3.2 11.3 0.00 0.00 0.00 55 1006.4
20260504183109 22 271 4.8 12.9 0.00 0.00 0.00 51 1006.7
20260504181603 22 157 3.2 14.5 0.00 0.00 0.00 55 1006.6
20260504180100 21 229 4.8 11.3 0.00 0.00 0.00 52 1006.7
20260504174556 21 289 3.2 12.9 0.00 0.00 0.00 51 1006.9
20260504173059 21 76 3.2 11.3 0.00 0.00 0.00 51 1007.1